Regional Weather Roundup
Issued by NWS Little Rock, AR

Home | Current Version | Previous Version | Text Only | Print | Product List | Glossary Off
Versions: 1 2 3 4 5 6 7 8 9 10 11 12 13 14 15 16 17 18 19 20 21 22 23 24 25 26 27 28 29 30 31 32 33 34 35 36 37 38 39 40 41 42 43 44 45 46 47 48 49 50

000
ASUS44 KLZK 130805
RWRLZK

WEATHER ROUNDUP FOR ARKANSAS
NATIONAL WEATHER SERVICE LITTLE ROCK AR
300 AM CDT SUN JUL 13 2014

NOTE: "FAIR" INDICATES FEW OR NO CLOUDS BELOW 12,000 FEET WITH NO
SIGNIFICANT WEATHER AND/OR OBSTRUCTIONS TO VISIBILITY.

ARZ001-003-010-029-130900-
NORTHWEST ARKANSAS

CITY           SKY/WX    TMP DP  RH WIND       PRES   REMARKS
FAYETTEVILLE   CLEAR     69  67  93 S3        30.08F
FORT SMITH     CLEAR     76  73  91 CALM      30.04F
HARRISON       CLEAR     73  68  84 SE3       30.07F
BENTONVILLE    CLEAR     73  64  73 S5        30.07F
ROGERS         CLEAR     73  65  75 S8        30.08F
SILOAM SPGS    CLEAR     72  61  68 SE3       30.08S
HIGHFILL       CLEAR     71  67  87 S5        30.07F
$$

ARZ004-005-016-130900-
NORTH CENTRAL ARKANSAS

CITY           SKY/WX    TMP DP  RH WIND       PRES   REMARKS
BATESVILLE     CLEAR     77  72  83 CALM      30.04F
FLIPPIN        CLEAR     72  66  83 SE3       30.04F
MTN HOME       CLEAR     74  70  87 S3        30.04F
$$

ARZ040-041-130900-
WEST CENTRAL ARKANSAS

CITY           SKY/WX    TMP DP  RH WIND       PRES   REMARKS
MENA           CLEAR     72 N/A N/A CALM      30.09F
MOUNT IDA      FOG       70  69  97 CALM      30.06S VSB 1
$$

ARZ009-017-025-026-028-130900-
NORTHEAST ARKANSAS

CITY           SKY/WX    TMP DP  RH WIND       PRES   REMARKS
CORNING        FAIR      77  77 100 SW7       30.02F
JONESBORO      CLEAR     79  74  84 SW7       30.02F
NEWPORT        CLEAR     78  76  94 SW3       30.04F
WALNUT RIDGE   CLEAR     77  73  88 SW6       30.02F
BLYTHEVILLE    CLEAR     76  73  91 SW5       30.03F
$$

ARZ022-023-033-042-044-130900-
CENTRAL ARKANSAS

CITY           SKY/WX    TMP DP  RH WIND       PRES   REMARKS
LITTLE ROCK    CLEAR     78  72  81 CALM      30.05F
N LITTLE ROCK    N/A     79  75  89 SW7       30.05F
SEARCY         CLEAR     75  74  97 CALM      30.05F
HOT SPRINGS    CLEAR     73  70  90 CALM      30.07F
RUSSELLVILLE   CLEAR     74  72  93 CALM      30.04F
CLINTON        FAIR      72  72 100 CALM      30.06F FOG
$$

ARZ036-130900-
EAST ARKANSAS

CITY           SKY/WX    TMP DP  RH WIND       PRES   REMARKS
WEST MEMPHIS   CLEAR     77  75  93 SW5       30.03F
$$

ARZ050-053-066-070-073-130900-
SOUTHWEST ARKANSAS

CITY           SKY/WX    TMP DP  RH WIND       PRES   REMARKS
ARKADELPHIA    FOG       73  73 100 CALM      30.06F VSB 1
CAMDEN         CLEAR     73  72  94 CALM      30.05F FOG
TEXARKANA      CLEAR     77  71  82 S5        30.06F
EL DORADO      CLEAR     73  72  96 CALM      30.06F
DE QUEEN       CLEAR     71  70  96 CALM      30.04F FOG
$$

ARZ056-057-069-130900-
SOUTHEAST ARKANSAS

CITY           SKY/WX    TMP DP  RH WIND       PRES   REMARKS
PINE BLUFF     CLEAR     77  73  87 CALM      30.05F
MONTICELLO     CLEAR     74  72  93 CALM      30.04F

$$




USA.gov is the U.S. government's official web portal to all federal, state and local government web resources and services.